Year,Month,Day,Hour,Minute,Value (Times are PST for windspeed in km/hr)
2016,03,12,00,00,0.00
2016,03,12,00,01,0.00
2016,03,12,00,02,0.00
2016,03,12,00,03,0.00
2016,03,12,00,04,0.00
2016,03,12,00,05,0.00
2016,03,12,00,06,0.00
2016,03,12,00,07,0.00
2016,03,12,00,08,0.00
2016,03,12,00,09,0.00
2016,03,12,00,10,0.00
2016,03,12,00,11,0.00
2016,03,12,00,12,0.00
2016,03,12,00,13,0.50
2016,03,12,00,14,3.00
2016,03,12,00,15,3.10
2016,03,12,00,16,3.00
2016,03,12,00,17,2.50
2016,03,12,00,18,2.20
2016,03,12,00,19,2.30
2016,03,12,00,20,2.20
2016,03,12,00,21,2.30
2016,03,12,00,22,2.30
2016,03,12,00,23,2.00
2016,03,12,00,24,1.70
2016,03,12,00,25,1.80
2016,03,12,00,26,2.40
2016,03,12,00,27,2.90
2016,03,12,00,28,2.70
2016,03,12,00,29,3.00
2016,03,12,00,30,2.90
2016,03,12,00,31,2.00
2016,03,12,00,32,0.90
2016,03,12,00,33,0.90
2016,03,12,00,34,0.30
2016,03,12,00,35,0.00
2016,03,12,00,36,1.00
2016,03,12,00,37,1.00
2016,03,12,00,38,0.30
2016,03,12,00,39,1.30
2016,03,12,00,40,0.20
2016,03,12,00,41,0.00
2016,03,12,00,42,0.00
2016,03,12,00,43,0.00
2016,03,12,00,44,0.00
2016,03,12,00,45,0.00
2016,03,12,00,46,0.00
2016,03,12,00,47,0.10
2016,03,12,00,48,0.70
2016,03,12,00,49,0.00
2016,03,12,00,50,0.00
2016,03,12,00,51,0.00
2016,03,12,00,52,0.00
2016,03,12,00,53,0.00
2016,03,12,00,54,0.50
2016,03,12,00,55,1.50
2016,03,12,00,56,1.10
2016,03,12,00,57,1.10
2016,03,12,00,58,1.50
2016,03,12,00,59,2.50
2016,03,12,01,00,2.30
2016,03,12,01,01,2.10
2016,03,12,01,02,1.30
2016,03,12,01,03,1.60
2016,03,12,01,04,1.90
2016,03,12,01,05,1.70
2016,03,12,01,06,1.70
2016,03,12,01,07,2.60
2016,03,12,01,08,2.80
2016,03,12,01,09,0.30
2016,03,12,01,10,0.00
2016,03,12,01,11,0.00
2016,03,12,01,12,0.00
2016,03,12,01,13,0.00
2016,03,12,01,14,0.00
2016,03,12,01,15,0.00
2016,03,12,01,16,0.00
2016,03,12,01,17,0.00
2016,03,12,01,18,0.00
2016,03,12,01,19,0.00
2016,03,12,01,20,0.00
2016,03,12,01,21,0.00
2016,03,12,01,22,0.00
2016,03,12,01,23,0.00
2016,03,12,01,24,0.00
2016,03,12,01,25,0.00
2016,03,12,01,26,0.00
2016,03,12,01,27,0.00
2016,03,12,01,28,0.00
2016,03,12,01,29,0.00
2016,03,12,01,30,0.00
2016,03,12,01,31,2.70
2016,03,12,01,32,4.10
2016,03,12,01,33,3.90
2016,03,12,01,34,4.00
2016,03,12,01,35,3.90
2016,03,12,01,36,2.30
2016,03,12,01,37,2.20
2016,03,12,01,38,1.80
2016,03,12,01,39,2.40
2016,03,12,01,40,1.90
2016,03,12,01,41,2.00
2016,03,12,01,42,1.50
2016,03,12,01,43,1.10
2016,03,12,01,44,0.10
2016,03,12,01,45,0.00
2016,03,12,01,46,0.00
2016,03,12,01,47,0.00
2016,03,12,01,48,0.00
2016,03,12,01,49,0.40
2016,03,12,01,50,2.50
2016,03,12,01,51,2.30
2016,03,12,01,52,3.40
2016,03,12,01,53,3.70
2016,03,12,01,54,3.60
2016,03,12,01,55,3.30
2016,03,12,01,56,4.40
2016,03,12,01,57,4.90
2016,03,12,01,58,4.40
2016,03,12,01,59,3.70
2016,03,12,02,00,3.00
2016,03,12,02,01,3.30
2016,03,12,02,02,3.30
2016,03,12,02,03,3.30
2016,03,12,02,04,2.50
2016,03,12,02,05,1.90
2016,03,12,02,06,0.70
2016,03,12,02,07,0.60
2016,03,12,02,08,1.50
2016,03,12,02,09,2.40
2016,03,12,02,10,2.40
2016,03,12,02,11,2.80
2016,03,12,02,12,3.50
2016,03,12,02,13,3.50
2016,03,12,02,14,3.00
2016,03,12,02,15,3.40
2016,03,12,02,16,3.40
2016,03,12,02,17,2.50
2016,03,12,02,18,2.60
2016,03,12,02,19,0.80
2016,03,12,02,20,0.00
2016,03,12,02,21,0.20
2016,03,12,02,22,1.50
2016,03,12,02,23,1.50
2016,03,12,02,24,0.20
2016,03,12,02,25,0.00
2016,03,12,02,26,0.00
2016,03,12,02,27,1.90
2016,03,12,02,28,3.50
2016,03,12,02,29,1.40
2016,03,12,02,30,2.30
2016,03,12,02,31,4.10
2016,03,12,02,32,5.10
2016,03,12,02,33,3.00
2016,03,12,02,34,2.00
2016,03,12,02,35,2.70
2016,03,12,02,36,0.70
2016,03,12,02,37,0.60
2016,03,12,02,38,0.80
2016,03,12,02,39,0.10
2016,03,12,02,40,0.60
2016,03,12,02,41,2.30
2016,03,12,02,42,0.30
2016,03,12,02,43,0.00
2016,03,12,02,44,0.00
2016,03,12,02,45,0.70
2016,03,12,02,46,1.50
2016,03,12,02,47,2.00
2016,03,12,02,48,2.00
2016,03,12,02,49,3.00
2016,03,12,02,50,2.30
2016,03,12,02,51,0.50
2016,03,12,02,52,0.00
2016,03,12,02,53,0.00
2016,03,12,02,54,0.00
2016,03,12,02,55,0.00
2016,03,12,02,56,0.00
2016,03,12,02,57,0.10
2016,03,12,02,58,1.10
2016,03,12,02,59,1.00
2016,03,12,03,00,0.90
2016,03,12,03,01,1.00
2016,03,12,03,02,0.70
2016,03,12,03,03,0.00
2016,03,12,03,04,0.00
2016,03,12,03,05,0.00
2016,03,12,03,06,0.00
2016,03,12,03,07,0.30
2016,03,12,03,08,1.10
2016,03,12,03,09,0.40
2016,03,12,03,10,0.00
2016,03,12,03,11,0.50
2016,03,12,03,12,1.50
2016,03,12,03,13,1.00
2016,03,12,03,14,1.30
2016,03,12,03,15,2.30
2016,03,12,03,16,1.60
2016,03,12,03,17,1.60
2016,03,12,03,18,1.20
2016,03,12,03,19,1.80
2016,03,12,03,20,2.30
2016,03,12,03,21,2.00
2016,03,12,03,22,2.60
2016,03,12,03,23,2.00
2016,03,12,03,24,1.40
2016,03,12,03,25,1.60
2016,03,12,03,26,0.70
2016,03,12,03,27,0.00
2016,03,12,03,28,0.00
2016,03,12,03,29,0.00
2016,03,12,03,30,0.00
2016,03,12,03,31,0.10
2016,03,12,03,32,0.90
2016,03,12,03,33,2.50
2016,03,12,03,34,3.20
2016,03,12,03,35,3.00
2016,03,12,03,36,1.70
2016,03,12,03,37,1.40
2016,03,12,03,38,1.20
2016,03,12,03,39,0.50
2016,03,12,03,40,0.30
2016,03,12,03,41,0.00
2016,03,12,03,42,0.00
2016,03,12,03,43,0.90
2016,03,12,03,44,2.50
2016,03,12,03,45,1.40
2016,03,12,03,46,2.10
2016,03,12,03,47,2.00
2016,03,12,03,48,2.60
2016,03,12,03,49,1.40
2016,03,12,03,50,1.10
2016,03,12,03,51,0.60
2016,03,12,03,52,1.50
2016,03,12,03,53,3.00
2016,03,12,03,54,3.00
2016,03,12,03,55,2.60
2016,03,12,03,56,1.70
2016,03,12,03,57,1.20
2016,03,12,03,58,0.60
2016,03,12,03,59,0.00
2016,03,12,04,00,0.20
2016,03,12,04,01,0.10
2016,03,12,04,02,0.00
2016,03,12,04,03,0.00
2016,03,12,04,04,0.00
2016,03,12,04,05,0.00
2016,03,12,04,06,0.00
2016,03,12,04,07,0.00
2016,03,12,04,08,0.30
2016,03,12,04,09,2.00
2016,03,12,04,10,2.80
2016,03,12,04,11,2.60
2016,03,12,04,12,4.00
2016,03,12,04,13,0.50
2016,03,12,04,14,0.10
2016,03,12,04,15,0.20
2016,03,12,04,16,0.10
2016,03,12,04,17,0.00
2016,03,12,04,18,0.00
2016,03,12,04,19,0.40
2016,03,12,04,20,2.70
2016,03,12,04,21,2.80
2016,03,12,04,22,1.50
2016,03,12,04,23,0.60
2016,03,12,04,24,0.40
2016,03,12,04,25,0.40
2016,03,12,04,26,0.90
2016,03,12,04,27,3.50
2016,03,12,04,28,3.00
2016,03,12,04,29,2.30
2016,03,12,04,30,2.00
2016,03,12,04,31,2.70
2016,03,12,04,32,3.60
2016,03,12,04,33,1.60
2016,03,12,04,34,3.20
2016,03,12,04,35,2.00
2016,03,12,04,36,0.90
2016,03,12,04,37,1.10
2016,03,12,04,38,0.20
2016,03,12,04,39,1.00
2016,03,12,04,40,0.00
2016,03,12,04,41,0.00
2016,03,12,04,42,0.00
2016,03,12,04,43,0.00
2016,03,12,04,44,0.00
2016,03,12,04,45,0.50
2016,03,12,04,46,0.70
2016,03,12,04,47,0.50
2016,03,12,04,48,1.10
2016,03,12,04,49,0.60
2016,03,12,04,50,0.60
2016,03,12,04,51,1.30
2016,03,12,04,52,2.20
2016,03,12,04,53,1.00
2016,03,12,04,54,0.00
2016,03,12,04,55,1.90
2016,03,12,04,56,2.30
2016,03,12,04,57,2.60
2016,03,12,04,58,1.40
2016,03,12,04,59,0.60
2016,03,12,05,00,0.00
2016,03,12,05,01,0.20
2016,03,12,05,02,0.70
2016,03,12,05,03,1.80
2016,03,12,05,04,1.90
2016,03,12,05,05,2.20
2016,03,12,05,06,2.70
2016,03,12,05,07,2.00
2016,03,12,05,08,1.10
2016,03,12,05,09,0.60
2016,03,12,05,10,1.10
2016,03,12,05,11,0.20
2016,03,12,05,12,0.00
2016,03,12,05,13,0.00
2016,03,12,05,14,0.00
2016,03,12,05,15,0.00
2016,03,12,05,16,0.00
2016,03,12,05,17,0.00
2016,03,12,05,18,0.80
2016,03,12,05,19,3.60
2016,03,12,05,20,4.10
2016,03,12,05,21,3.80
2016,03,12,05,22,4.20
2016,03,12,05,23,3.60
2016,03,12,05,24,3.70
2016,03,12,05,25,4.10
2016,03,12,05,26,4.20
2016,03,12,05,27,4.20
2016,03,12,05,28,4.30
2016,03,12,05,29,4.30
2016,03,12,05,30,4.00
2016,03,12,05,31,4.50
2016,03,12,05,32,3.90
2016,03,12,05,33,5.00
2016,03,12,05,34,4.30
2016,03,12,05,35,6.40
2016,03,12,05,36,5.50
2016,03,12,05,37,5.30
2016,03,12,05,38,5.60
2016,03,12,05,39,6.60
2016,03,12,05,40,3.60
2016,03,12,05,41,4.10
2016,03,12,05,42,2.50
2016,03,12,05,43,2.50
2016,03,12,05,44,5.10
2016,03,12,05,45,3.90
2016,03,12,05,46,2.30
2016,03,12,05,47,2.30
2016,03,12,05,48,0.90
2016,03,12,05,49,0.60
2016,03,12,05,50,3.00
2016,03,12,05,51,2.20
2016,03,12,05,52,0.20
2016,03,12,05,53,1.40
2016,03,12,05,54,0.40
2016,03,12,05,55,0.20
2016,03,12,05,56,1.50
2016,03,12,05,57,1.50
2016,03,12,05,58,1.10
2016,03,12,05,59,0.60
2016,03,12,06,00,0.10
2016,03,12,06,01,0.90
2016,03,12,06,02,0.00
2016,03,12,06,03,0.00
2016,03,12,06,04,0.00
2016,03,12,06,05,0.00
2016,03,12,06,06,0.00
2016,03,12,06,07,0.00
2016,03,12,06,08,0.30
2016,03,12,06,09,1.30
2016,03,12,06,10,2.30
2016,03,12,06,11,3.10
2016,03,12,06,12,4.10
2016,03,12,06,13,4.10
2016,03,12,06,14,3.60
2016,03,12,06,15,5.10
2016,03,12,06,16,5.60
2016,03,12,06,17,5.00
2016,03,12,06,18,5.30
2016,03,12,06,19,5.00
2016,03,12,06,20,3.80
2016,03,12,06,21,2.80
2016,03,12,06,22,3.20
2016,03,12,06,23,3.40
2016,03,12,06,24,3.20
2016,03,12,06,25,3.40
2016,03,12,06,26,2.90
2016,03,12,06,27,3.70
2016,03,12,06,28,4.60
2016,03,12,06,29,4.30
2016,03,12,06,30,3.80
2016,03,12,06,31,3.60
2016,03,12,06,32,4.40
2016,03,12,06,33,3.70
2016,03,12,06,34,4.10
2016,03,12,06,35,3.90
2016,03,12,06,36,3.30
2016,03,12,06,37,4.20
2016,03,12,06,38,3.60
2016,03,12,06,39,3.50
2016,03,12,06,40,3.30
2016,03,12,06,41,3.90
2016,03,12,06,42,3.90
2016,03,12,06,43,4.30
2016,03,12,06,44,3.20
2016,03,12,06,45,3.70
2016,03,12,06,46,3.90
2016,03,12,06,47,3.70
2016,03,12,06,48,4.90
2016,03,12,06,49,3.90
2016,03,12,06,50,4.00
2016,03,12,06,51,5.10
2016,03,12,06,52,5.80
2016,03,12,06,53,4.30
2016,03,12,06,54,4.10
2016,03,12,06,55,3.30
2016,03,12,06,56,2.20
2016,03,12,06,57,3.00
2016,03,12,06,58,1.50
2016,03,12,06,59,0.80
2016,03,12,07,00,1.50
2016,03,12,07,01,1.40
2016,03,12,07,02,2.40
2016,03,12,07,03,1.90
2016,03,12,07,04,1.60
2016,03,12,07,05,3.20
2016,03,12,07,06,2.70
2016,03,12,07,07,3.30
2016,03,12,07,08,3.30
2016,03,12,07,09,2.80
2016,03,12,07,10,1.80
2016,03,12,07,11,1.60
2016,03,12,07,12,2.20
2016,03,12,07,13,3.50
2016,03,12,07,14,3.90
2016,03,12,07,15,2.40
2016,03,12,07,16,5.10
2016,03,12,07,17,5.80
2016,03,12,07,18,5.20
2016,03,12,07,19,6.60
2016,03,12,07,20,6.00
2016,03,12,07,21,6.20
2016,03,12,07,22,3.50
2016,03,12,07,23,7.00
2016,03,12,07,24,7.70
2016,03,12,07,25,4.60
2016,03,12,07,26,8.00
2016,03,12,07,27,6.40
2016,03,12,07,28,10.00
2016,03,12,07,29,14.00
2016,03,12,07,30,10.50
2016,03,12,07,31,7.50
2016,03,12,07,32,6.90
2016,03,12,07,33,6.90
2016,03,12,07,34,6.70
2016,03,12,07,35,11.40
2016,03,12,07,36,5.50
2016,03,12,07,37,5.80
2016,03,12,07,38,4.20
2016,03,12,07,39,2.10
2016,03,12,07,40,4.40
2016,03,12,07,41,3.50
2016,03,12,07,42,6.40
2016,03,12,07,43,7.60
2016,03,12,07,44,7.20
2016,03,12,07,45,6.10
2016,03,12,07,46,2.30
2016,03,12,07,47,2.60
2016,03,12,07,48,3.50
2016,03,12,07,49,4.20
2016,03,12,07,50,7.00
2016,03,12,07,51,6.50
2016,03,12,07,52,2.10
2016,03,12,07,53,1.20
2016,03,12,07,54,5.00
2016,03,12,07,55,6.00
2016,03,12,07,56,7.00
2016,03,12,07,57,8.20
2016,03,12,07,58,9.80
2016,03,12,07,59,8.90
2016,03,12,08,00,7.90
2016,03,12,08,01,4.80
2016,03,12,08,02,8.90
2016,03,12,08,03,10.70
2016,03,12,08,04,7.60
2016,03,12,08,05,7.30
2016,03,12,08,06,4.70
2016,03,12,08,07,4.30
2016,03,12,08,08,3.40
2016,03,12,08,09,3.80
2016,03,12,08,10,1.90
2016,03,12,08,11,4.00
2016,03,12,08,12,5.60
2016,03,12,08,13,3.60
2016,03,12,08,14,5.60
2016,03,12,08,15,7.30
2016,03,12,08,16,5.50
2016,03,12,08,17,4.10
2016,03,12,08,18,4.00
2016,03,12,08,19,1.00
2016,03,12,08,20,1.90
2016,03,12,08,21,1.70
2016,03,12,08,22,4.30
2016,03,12,08,23,8.90
2016,03,12,08,24,5.80
2016,03,12,08,25,7.40
2016,03,12,08,26,1.90
2016,03,12,08,27,0.30
2016,03,12,08,28,1.70
2016,03,12,08,29,2.10
2016,03,12,08,30,7.60
2016,03,12,08,31,8.80
2016,03,12,08,32,10.00
2016,03,12,08,33,4.70
2016,03,12,08,34,4.70
2016,03,12,08,35,7.00
2016,03,12,08,36,11.30
2016,03,12,08,37,10.60
2016,03,12,08,38,12.90
2016,03,12,08,39,11.10
2016,03,12,08,40,8.60
2016,03,12,08,41,9.30
2016,03,12,08,42,10.60
2016,03,12,08,43,9.30
2016,03,12,08,44,9.80
2016,03,12,08,45,11.00
2016,03,12,08,46,9.80
2016,03,12,08,47,9.10
2016,03,12,08,48,5.70
2016,03,12,08,49,3.60
2016,03,12,08,50,3.10
2016,03,12,08,51,3.70
2016,03,12,08,52,5.90
2016,03,12,08,53,7.20
2016,03,12,08,54,6.10
2016,03,12,08,55,8.30
2016,03,12,08,56,8.10
2016,03,12,08,57,5.40
2016,03,12,08,58,6.90
2016,03,12,08,59,6.10
2016,03,12,09,00,7.00
2016,03,12,09,01,8.90
2016,03,12,09,02,10.50
2016,03,12,09,03,9.10
2016,03,12,09,04,7.20
2016,03,12,09,05,10.90
2016,03,12,09,06,6.80
2016,03,12,09,07,7.20
2016,03,12,09,08,8.90
2016,03,12,09,09,7.00
2016,03,12,09,10,5.90
2016,03,12,09,11,9.80
2016,03,12,09,12,11.40
2016,03,12,09,13,10.40
2016,03,12,09,14,9.00
2016,03,12,09,15,8.60
2016,03,12,09,16,11.00
2016,03,12,09,17,9.80
2016,03,12,09,18,7.10
2016,03,12,09,19,6.20
2016,03,12,09,20,6.40
2016,03,12,09,21,6.30
2016,03,12,09,22,5.50
2016,03,12,09,23,7.00
2016,03,12,09,24,7.70
2016,03,12,09,25,7.70
2016,03,12,09,26,6.00
2016,03,12,09,27,5.90
2016,03,12,09,28,7.20
2016,03,12,09,29,6.40
2016,03,12,09,30,7.60
2016,03,12,09,31,4.70
2016,03,12,09,32,2.90
2016,03,12,09,33,4.30
2016,03,12,09,34,7.80
2016,03,12,09,35,8.70
2016,03,12,09,36,7.00
2016,03,12,09,37,3.60
2016,03,12,09,38,7.90
2016,03,12,09,39,7.60
2016,03,12,09,40,9.40
2016,03,12,09,41,9.80
2016,03,12,09,42,8.90
2016,03,12,09,43,6.10
2016,03,12,09,44,8.90
2016,03,12,09,45,15.30
2016,03,12,09,46,7.10
2016,03,12,09,47,5.70
2016,03,12,09,48,3.10
2016,03,12,09,49,4.70
2016,03,12,09,50,7.00
2016,03,12,09,51,6.70
2016,03,12,09,52,6.40
2016,03,12,09,53,9.20
2016,03,12,09,54,6.50
2016,03,12,09,55,7.30
2016,03,12,09,56,7.30
2016,03,12,09,57,6.60
2016,03,12,09,58,7.50
2016,03,12,09,59,9.10
2016,03,12,10,00,4.80
2016,03,12,10,01,9.60
2016,03,12,10,02,5.40
2016,03,12,10,03,3.50
2016,03,12,10,04,4.40
2016,03,12,10,05,9.70
2016,03,12,10,06,11.70
2016,03,12,10,07,5.90
2016,03,12,10,08,6.30
2016,03,12,10,09,5.80
2016,03,12,10,10,6.10
2016,03,12,10,11,11.70
2016,03,12,10,12,8.70
2016,03,12,10,13,4.40
2016,03,12,10,14,5.20
2016,03,12,10,15,4.70
2016,03,12,10,16,5.70
2016,03,12,10,17,6.40
2016,03,12,10,18,6.20
2016,03,12,10,19,8.00
2016,03,12,10,20,8.00
2016,03,12,10,21,11.50
2016,03,12,10,22,7.30
2016,03,12,10,23,7.50
2016,03,12,10,24,6.70
2016,03,12,10,25,5.60
2016,03,12,10,26,4.70
2016,03,12,10,27,4.70
2016,03,12,10,28,5.20
2016,03,12,10,29,2.30
2016,03,12,10,30,3.50
2016,03,12,10,31,5.10
2016,03,12,10,32,5.40
2016,03,12,10,33,4.10
2016,03,12,10,34,3.80
2016,03,12,10,35,0.50
2016,03,12,10,36,4.70
2016,03,12,10,37,6.00
2016,03,12,10,38,6.80
2016,03,12,10,39,7.90
2016,03,12,10,40,4.70
2016,03,12,10,41,5.60
2016,03,12,10,42,5.70
2016,03,12,10,43,3.50
2016,03,12,10,44,3.00
2016,03,12,10,45,1.00
2016,03,12,10,46,4.20
2016,03,12,10,47,6.00
2016,03,12,10,48,3.80
2016,03,12,10,49,6.70
2016,03,12,10,50,7.20
2016,03,12,10,51,6.70
2016,03,12,10,52,5.70
2016,03,12,10,53,4.00
2016,03,12,10,54,3.70
2016,03,12,10,55,6.80
2016,03,12,10,56,5.00
2016,03,12,10,57,3.40
2016,03,12,10,58,5.80
2016,03,12,10,59,6.50
2016,03,12,11,00,6.90
2016,03,12,11,01,6.90
2016,03,12,11,02,3.10
2016,03,12,11,03,3.10
2016,03,12,11,04,6.90
2016,03,12,11,05,5.10
2016,03,12,11,06,5.20
2016,03,12,11,07,2.40
2016,03,12,11,08,1.60
2016,03,12,11,09,1.20
2016,03,12,11,10,0.60
2016,03,12,11,11,1.30
2016,03,12,11,12,4.10
2016,03,12,11,13,4.60
2016,03,12,11,14,3.50
2016,03,12,11,15,4.40
2016,03,12,11,16,5.20
2016,03,12,11,17,4.60
2016,03,12,11,18,7.40
2016,03,12,11,19,4.40
2016,03,12,11,20,13.00
2016,03,12,11,21,9.40
2016,03,12,11,22,6.50
2016,03,12,11,23,11.40
2016,03,12,11,24,16.50
2016,03,12,11,25,13.30
2016,03,12,11,26,12.20
2016,03,12,11,27,11.40
2016,03,12,11,28,12.20
2016,03,12,11,29,14.30
2016,03,12,11,30,14.70
2016,03,12,11,31,10.70
2016,03,12,11,32,11.80
2016,03,12,11,33,7.10
2016,03,12,11,34,6.40
2016,03,12,11,35,8.60
2016,03,12,11,36,6.80
2016,03,12,11,37,5.60
2016,03,12,11,38,8.60
2016,03,12,11,39,15.60
2016,03,12,11,40,8.00
2016,03,12,11,41,3.20
2016,03,12,11,42,8.90
2016,03,12,11,43,10.80
2016,03,12,11,44,12.90
2016,03,12,11,45,10.50
2016,03,12,11,46,9.10
2016,03,12,11,47,9.10
2016,03,12,11,48,9.20
2016,03,12,11,49,6.00
2016,03,12,11,50,8.20
2016,03,12,11,51,10.70
2016,03,12,11,52,11.10
2016,03,12,11,53,8.90
2016,03,12,11,54,5.70
2016,03,12,11,55,7.20
2016,03,12,11,56,11.30
2016,03,12,11,57,11.80
2016,03,12,11,58,8.20
2016,03,12,11,59,11.50
2016,03,12,12,00,7.40
2016,03,12,12,01,10.10
2016,03,12,12,02,10.10
2016,03,12,12,03,12.20
2016,03,12,12,04,9.70
2016,03,12,12,05,9.00
2016,03,12,12,06,14.10
2016,03,12,12,07,13.90
2016,03,12,12,08,8.70
2016,03,12,12,09,12.20
2016,03,12,12,10,14.60
2016,03,12,12,11,11.60
2016,03,12,12,12,10.40
2016,03,12,12,13,5.50
2016,03,12,12,14,4.80
2016,03,12,12,15,5.60
2016,03,12,12,16,4.30
2016,03,12,12,17,8.20
2016,03,12,12,18,8.00
2016,03,12,12,19,8.60
2016,03,12,12,20,3.50
2016,03,12,12,21,9.10
2016,03,12,12,22,6.60
2016,03,12,12,23,9.40
2016,03,12,12,24,5.90
2016,03,12,12,25,3.90
2016,03,12,12,26,1.10
2016,03,12,12,27,7.30
2016,03,12,12,28,5.00
2016,03,12,12,29,8.30
2016,03,12,12,30,8.10
2016,03,12,12,31,8.90
2016,03,12,12,32,7.30
2016,03,12,12,33,3.90
2016,03,12,12,34,4.90
2016,03,12,12,35,3.90
2016,03,12,12,36,3.10
2016,03,12,12,37,3.00
2016,03,12,12,38,10.70
2016,03,12,12,39,7.60
2016,03,12,12,40,5.70
2016,03,12,12,41,8.50
2016,03,12,12,42,8.90
2016,03,12,12,43,7.00
2016,03,12,12,44,7.70
2016,03,12,12,45,10.30
2016,03,12,12,46,11.00
2016,03,12,12,47,8.60
2016,03,12,12,48,5.70
2016,03,12,12,49,6.50
2016,03,12,12,50,9.30
2016,03,12,12,51,6.80
2016,03,12,12,52,4.70
2016,03,12,12,53,4.30
2016,03,12,12,54,4.60
2016,03,12,12,55,6.40
2016,03,12,12,56,8.90
2016,03,12,12,57,9.00
2016,03,12,12,58,6.70
2016,03,12,12,59,5.90
2016,03,12,13,00,6.40
2016,03,12,13,01,7.00
2016,03,12,13,02,7.10
2016,03,12,13,03,6.90
2016,03,12,13,04,5.10
2016,03,12,13,05,8.50
2016,03,12,13,06,11.60
2016,03,12,13,07,9.70
2016,03,12,13,08,5.30
2016,03,12,13,09,2.00
2016,03,12,13,10,6.60
2016,03,12,13,11,3.70
2016,03,12,13,12,6.00
2016,03,12,13,13,4.90
2016,03,12,13,14,5.80
2016,03,12,13,15,6.40
2016,03,12,13,16,6.60
2016,03,12,13,17,6.30
2016,03,12,13,18,3.20
2016,03,12,13,19,3.70
2016,03,12,13,20,4.60
2016,03,12,13,21,3.50
2016,03,12,13,22,4.40
2016,03,12,13,23,4.40
2016,03,12,13,24,7.70
2016,03,12,13,25,7.60
2016,03,12,13,26,7.40
2016,03,12,13,27,8.10
2016,03,12,13,28,8.60
2016,03,12,13,29,8.40
2016,03,12,13,30,7.90
2016,03,12,13,31,7.20
2016,03,12,13,32,6.70
2016,03,12,13,33,5.80
2016,03,12,13,34,9.10
2016,03,12,13,35,7.20
2016,03,12,13,36,4.20
2016,03,12,13,37,6.70
2016,03,12,13,38,4.80
2016,03,12,13,39,4.70
2016,03,12,13,40,7.40
2016,03,12,13,41,6.80
2016,03,12,13,42,3.60
2016,03,12,13,43,4.30
2016,03,12,13,44,5.30
2016,03,12,13,45,4.70
2016,03,12,13,46,4.80
2016,03,12,13,47,7.80
2016,03,12,13,48,6.80
2016,03,12,13,49,8.00
2016,03,12,13,50,7.00
2016,03,12,13,51,6.20
2016,03,12,13,52,8.90
2016,03,12,13,53,6.00
2016,03,12,13,54,8.20
2016,03,12,13,55,8.10
2016,03,12,13,56,9.30
2016,03,12,13,57,7.50
2016,03,12,13,58,7.30
2016,03,12,13,59,5.90
2016,03,12,14,00,7.20
2016,03,12,14,01,5.70
2016,03,12,14,02,6.70
2016,03,12,14,03,7.70
2016,03,12,14,04,4.30
2016,03,12,14,05,5.10
2016,03,12,14,06,6.40
2016,03,12,14,07,7.10
2016,03,12,14,08,7.20
2016,03,12,14,09,4.70
2016,03,12,14,10,4.30
2016,03,12,14,11,3.90
2016,03,12,14,12,6.60
2016,03,12,14,13,7.30
2016,03,12,14,14,6.00
2016,03,12,14,15,7.00
2016,03,12,14,16,9.10
2016,03,12,14,17,6.80
2016,03,12,14,18,5.50
2016,03,12,14,19,4.60
2016,03,12,14,20,5.60
2016,03,12,14,21,3.60
2016,03,12,14,22,2.30
2016,03,12,14,23,5.40
2016,03,12,14,24,5.80
2016,03,12,14,25,5.00
2016,03,12,14,26,3.90
2016,03,12,14,27,5.90
2016,03,12,14,28,8.10
2016,03,12,14,29,7.40
2016,03,12,14,30,7.70
2016,03,12,14,31,7.90
2016,03,12,14,32,7.90
2016,03,12,14,33,8.50
2016,03,12,14,34,8.10
2016,03,12,14,35,8.50
2016,03,12,14,36,5.80
2016,03,12,14,37,8.00
2016,03,12,14,38,5.80
2016,03,12,14,39,5.50
2016,03,12,14,40,7.00
2016,03,12,14,41,5.30
2016,03,12,14,42,6.80
2016,03,12,14,43,7.80
2016,03,12,14,44,6.60
2016,03,12,14,45,5.90
2016,03,12,14,46,6.40
2016,03,12,14,47,10.10
2016,03,12,14,48,12.30
2016,03,12,14,49,10.40
2016,03,12,14,50,10.80
2016,03,12,14,51,10.50
2016,03,12,14,52,11.10
2016,03,12,14,53,12.20
2016,03,12,14,54,10.30
2016,03,12,14,55,11.40
2016,03,12,14,56,11.80
2016,03,12,14,57,11.40
2016,03,12,14,58,9.40
2016,03,12,14,59,7.70
2016,03,12,15,00,6.20
2016,03,12,15,01,5.20
2016,03,12,15,02,9.70
2016,03,12,15,03,10.40
2016,03,12,15,04,6.50
2016,03,12,15,05,4.70
2016,03,12,15,06,4.40
2016,03,12,15,07,5.40
2016,03,12,15,08,7.60
2016,03,12,15,09,3.80
2016,03,12,15,10,4.50
2016,03,12,15,11,8.20
2016,03,12,15,12,8.10
2016,03,12,15,13,8.10
2016,03,12,15,14,9.40
2016,03,12,15,15,9.90
2016,03,12,15,16,7.20
2016,03,12,15,17,9.20
2016,03,12,15,18,7.50
2016,03,12,15,19,6.20
2016,03,12,15,20,5.80
2016,03,12,15,21,5.90
2016,03,12,15,22,8.40
2016,03,12,15,23,11.10
2016,03,12,15,24,15.60
2016,03,12,15,25,8.00
2016,03,12,15,26,8.00
2016,03,12,15,27,6.80
2016,03,12,15,28,10.10
2016,03,12,15,29,10.80
2016,03,12,15,30,10.70
2016,03,12,15,31,12.20
2016,03,12,15,32,12.90
2016,03,12,15,33,13.10
2016,03,12,15,34,10.40
2016,03,12,15,35,9.60
2016,03,12,15,36,9.70
2016,03,12,15,37,12.70
2016,03,12,15,38,12.00
2016,03,12,15,39,10.90
2016,03,12,15,40,10.60
2016,03,12,15,41,12.10
2016,03,12,15,42,7.70
2016,03,12,15,43,11.60
2016,03,12,15,44,12.40
2016,03,12,15,45,13.00
2016,03,12,15,46,12.20
2016,03,12,15,47,14.20
2016,03,12,15,48,9.40
2016,03,12,15,49,9.10
2016,03,12,15,50,11.80
2016,03,12,15,51,17.10
2016,03,12,15,52,14.70
2016,03,12,15,53,11.60
2016,03,12,15,54,10.70
2016,03,12,15,55,10.90
2016,03,12,15,56,17.10
2016,03,12,15,57,12.00
2016,03,12,15,58,7.80
2016,03,12,15,59,12.40
2016,03,12,16,00,16.70
2016,03,12,16,01,12.50
2016,03,12,16,02,11.00
2016,03,12,16,03,6.10
2016,03,12,16,04,11.40
2016,03,12,16,05,13.30
2016,03,12,16,06,14.60
2016,03,12,16,07,12.20
2016,03,12,16,08,9.40
2016,03,12,16,09,9.10
2016,03,12,16,10,5.80
2016,03,12,16,11,4.00
2016,03,12,16,12,4.10
2016,03,12,16,13,3.80
2016,03,12,16,14,7.00
2016,03,12,16,15,7.30
2016,03,12,16,16,6.70
2016,03,12,16,17,6.40
2016,03,12,16,18,5.90
2016,03,12,16,19,9.70
2016,03,12,16,20,9.20
2016,03,12,16,21,4.70
2016,03,12,16,22,9.70
2016,03,12,16,23,8.40
2016,03,12,16,24,5.20
2016,03,12,16,25,6.80
2016,03,12,16,26,11.30
2016,03,12,16,27,8.60
2016,03,12,16,28,7.00
2016,03,12,16,29,11.80
2016,03,12,16,30,10.50
2016,03,12,16,31,6.80
2016,03,12,16,32,10.20
2016,03,12,16,33,10.60
2016,03,12,16,34,11.10
2016,03,12,16,35,8.60
2016,03,12,16,36,8.40
2016,03,12,16,37,7.20
2016,03,12,16,38,6.90
2016,03,12,16,39,7.10
2016,03,12,16,40,6.90
2016,03,12,16,41,8.00
2016,03,12,16,42,10.40
2016,03,12,16,43,10.00
2016,03,12,16,44,10.10
2016,03,12,16,45,6.20
2016,03,12,16,46,11.30
2016,03,12,16,47,8.50
2016,03,12,16,48,9.70
2016,03,12,16,49,6.70
2016,03,12,16,50,8.10
2016,03,12,16,51,7.30
2016,03,12,16,52,7.30
2016,03,12,16,53,9.70
2016,03,12,16,54,4.20
2016,03,12,16,55,5.80
2016,03,12,16,56,7.00
2016,03,12,16,57,9.20
2016,03,12,16,58,6.60
2016,03,12,16,59,6.90
2016,03,12,17,00,11.80
2016,03,12,17,01,7.50
2016,03,12,17,02,7.20
2016,03,12,17,03,9.30
2016,03,12,17,04,6.30
2016,03,12,17,05,8.10
2016,03,12,17,06,10.90
2016,03,12,17,07,7.90
2016,03,12,17,08,7.90
2016,03,12,17,09,11.30
2016,03,12,17,10,9.50
2016,03,12,17,11,9.50
2016,03,12,17,12,11.40
2016,03,12,17,13,6.70
2016,03,12,17,14,10.90
2016,03,12,17,15,10.40
2016,03,12,17,16,6.90
2016,03,12,17,17,7.60
2016,03,12,17,18,10.30
2016,03,12,17,19,9.10
2016,03,12,17,20,5.30
2016,03,12,17,21,5.80
2016,03,12,17,22,8.10
2016,03,12,17,23,7.10
2016,03,12,17,24,10.80
2016,03,12,17,25,8.80
2016,03,12,17,26,10.40
2016,03,12,17,27,11.70
2016,03,12,17,28,9.50
2016,03,12,17,29,9.70
2016,03,12,17,30,8.30
2016,03,12,17,31,8.50
2016,03,12,17,32,8.70
2016,03,12,17,33,6.80
2016,03,12,17,34,9.30
2016,03,12,17,35,8.00
2016,03,12,17,36,9.60
2016,03,12,17,37,8.20
2016,03,12,17,38,6.90
2016,03,12,17,39,10.70
2016,03,12,17,40,8.70
2016,03,12,17,41,6.90
2016,03,12,17,42,6.80
2016,03,12,17,43,6.70
2016,03,12,17,44,7.10
2016,03,12,17,45,6.30
2016,03,12,17,46,8.60
2016,03,12,17,47,6.00
2016,03,12,17,48,6.80
2016,03,12,17,49,5.60
2016,03,12,17,50,5.70
2016,03,12,17,51,5.10
2016,03,12,17,52,3.90
2016,03,12,17,53,4.60
2016,03,12,17,54,4.90
2016,03,12,17,55,3.90
2016,03,12,17,56,5.10
2016,03,12,17,57,4.10
2016,03,12,17,58,3.30
2016,03,12,17,59,4.30
2016,03,12,18,00,3.90
2016,03,12,18,01,4.70